• Em Portugal
  • Lista de países
  • Para 7 dias
  • Temperatura da água
  • Mapas de satélite
  • Mapa do tempo
  • Widgets de tempo
  • user-avatar
    Iniciar Sessão

    Previsão horária em Basejn

    Hoje, 23 Fevereiro, Sexta-feira

    Tempo Temperatura Precipitação Vento Pressão Humidade
    00:00 +25°C° 0 mm 3 m/s 757 mmHg 64%
    01:00 +25°C° 0 mm 3 m/s 756 mmHg 65%
    02:00 +25°C° 0 mm 3 m/s 756 mmHg 66%
    03:00 +24°C° 0 mm 3 m/s 756 mmHg 67%
    04:00 +24°C° 0 mm 3 m/s 756 mmHg 67%
    05:00 +24°C° 0 mm 2 m/s 756 mmHg 66%
    06:00 +24°C° 0 mm 2 m/s 756 mmHg 66%
    07:00 +26°C° 0 mm 3 m/s 757 mmHg 56%
    08:00 +29°C° 0 mm 3 m/s 757 mmHg 46%
    09:00 +31°C° 0 mm 3 m/s 758 mmHg 36%
    10:00 +34°C° 0 mm 3 m/s 757 mmHg 33%
    11:00 +36°C° 0 mm 3 m/s 757 mmHg 30%
    12:00 +37°C° 0 mm 3 m/s 757 mmHg 26%
    13:00 +37°C° 0 mm 3 m/s 757 mmHg 26%
    14:00 +37°C° 0 mm 3 m/s 756 mmHg 26%
    15:00 +38°C° 0 mm 3 m/s 755 mmHg 26%
    16:00 +35°C° 0 mm 3 m/s 755 mmHg 30%
    17:00 +33°C° 0 mm 4 m/s 756 mmHg 34%
    18:00 +29°C° 0 mm 4 m/s 756 mmHg 38%
    19:00 +28°C° 0 mm 3 m/s 756 mmHg 45%
    20:00 +27°C° 0 mm 3 m/s 757 mmHg 51%
    21:00 +26°C° 0 mm 2 m/s 757 mmHg 58%
    22:00 +25°C° 0 mm 2 m/s 757 mmHg 62%
    23:00 +25°C° 0 mm 2 m/s 757 mmHg 66%

    Amanhã, 24 Fevereiro, Sábado

    Tempo Temperatura Precipitação Vento Pressão Humidade
    00:00 +25°C° 0 mm 2 m/s 757 mmHg 70%
    01:00 +24°C° 0 mm 2 m/s 757 mmHg 72%
    02:00 +24°C° 0 mm 2 m/s 757 mmHg 75%
    03:00 +24°C° 0 mm 2 m/s 757 mmHg 77%
    04:00 +24°C° 0 mm 2 m/s 757 mmHg 77%
    05:00 +24°C° 0 mm 2 m/s 757 mmHg 77%
    06:00 +23°C° 0 mm 2 m/s 758 mmHg 77%
    07:00 +26°C° 0 mm 2 m/s 758 mmHg 64%
    08:00 +29°C° 0 mm 2 m/s 759 mmHg 51%
    09:00 +31°C° 0 mm 2 m/s 759 mmHg 39%
    10:00 +34°C° 0 mm 2 m/s 759 mmHg 35%
    11:00 +36°C° 0 mm 2 m/s 759 mmHg 31%
    12:00 +39°C° 0 mm 1 m/s 758 mmHg 27%
    13:00 +39°C° 0 mm 2 m/s 758 mmHg 27%
    14:00 +39°C° 0 mm 2 m/s 757 mmHg 27%
    15:00 +39°C° 0 mm 3 m/s 756 mmHg 27%
    16:00 +37°C° 0 mm 3 m/s 756 mmHg 30%
    17:00 +35°C° 0 mm 3 m/s 756 mmHg 33%
    18:00 +31°C° 0 mm 3 m/s 756 mmHg 37%
    19:00 +30°C° 0 mm 3 m/s 757 mmHg 42%
    20:00 +29°C° 0 mm 3 m/s 757 mmHg 48%
    21:00 +27°C° 0 mm 2 m/s 758 mmHg 53%
    22:00 +27°C° 0 mm 2 m/s 758 mmHg 58%
    23:00 +26°C° 0 mm 2 m/s 758 mmHg 63%

    Depois de amanhã, 25 Fevereiro, Domingo

    Tempo Temperatura Precipitação Vento Pressão Humidade
    00:00 +26°C° 0 mm 2 m/s 758 mmHg 68%
    01:00 +26°C° 0 mm 2 m/s 757 mmHg 71%
    02:00 +25°C° 0 mm 2 m/s 757 mmHg 73%
    03:00 +25°C° 0 mm 3 m/s 757 mmHg 76%
    04:00 +25°C° 0 mm 2 m/s 757 mmHg 74%
    05:00 +25°C° 0 mm 2 m/s 757 mmHg 72%
    06:00 +24°C° 0 mm 2 m/s 757 mmHg 69%
    07:00 +27°C° 0 mm 2 m/s 758 mmHg 57%
    08:00 +30°C° 0 mm 2 m/s 758 mmHg 44%
    09:00 +32°C° 0 mm 2 m/s 759 mmHg 31%
    10:00 +35°C° 0 mm 2 m/s 759 mmHg 28%
    11:00 +37°C° 0 mm 2 m/s 758 mmHg 26%
    12:00 +39°C° 0 mm 2 m/s 758 mmHg 23%
    13:00 +39°C° 0 mm 2 m/s 757 mmHg 23%
    14:00 +39°C° 0 mm 2 m/s 756 mmHg 22%
    15:00 +40°C° 0 mm 3 m/s 755 mmHg 22%
    16:00 +37°C° 0 mm 3 m/s 755 mmHg 27%
    17:00 +35°C° 0 mm 3 m/s 755 mmHg 31%
    18:00 +33°C° 0 mm 3 m/s 755 mmHg 36%
    19:00 +30°C° 0 mm 3 m/s 756 mmHg 43%
    20:00 +29°C° 0 mm 3 m/s 756 mmHg 49%
    21:00 +27°C° 0 mm 3 m/s 757 mmHg 56%
    22:00 +27°C° 0 mm 3 m/s 757 mmHg 60%
    23:00 +26°C° 0 mm 3 m/s 757 mmHg 65%

    26 Fevereiro, Segunda-feira

    Tempo Temperatura Precipitação Vento Pressão Humidade
    00:00 +26°C° 0 mm 3 m/s 757 mmHg 69%
    01:00 +26°C° 0 mm 3 m/s 756 mmHg 71%
    02:00 +25°C° 0 mm 3 m/s 756 mmHg 72%
    03:00 +25°C° 0 mm 3 m/s 755 mmHg 74%
    04:00 +25°C° 0 mm 2 m/s 756 mmHg 72%
    05:00 +25°C° 0 mm 2 m/s 756 mmHg 70%
    06:00 +24°C° 0 mm 2 m/s 756 mmHg 68%
    07:00 +27°C° 0 mm 2 m/s 757 mmHg 55%
    08:00 +30°C° 0 mm 2 m/s 757 mmHg 42%
    09:00 +34°C° 0 mm 2 m/s 758 mmHg 29%
    10:00 +36°C° 0 mm 2 m/s 758 mmHg 25%
    11:00 +38°C° 0 mm 2 m/s 757 mmHg 22%
    12:00 +41°C° 0 mm 2 m/s 756 mmHg 18%
    13:00 +40°C° 0 mm 2 m/s 756 mmHg 19%
    14:00 +40°C° 0 mm 3 m/s 755 mmHg 19%
    15:00 +40°C° 0 mm 3 m/s 754 mmHg 20%
    16:00 +38°C° 0 mm 3 m/s 754 mmHg 25%
    17:00 +35°C° 0 mm 4 m/s 755 mmHg 30%
    18:00 +33°C° 0 mm 4 m/s 755 mmHg 34%
    19:00 +32°C° 0 mm 4 m/s 755 mmHg 43%
    20:00 +29°C° 0 mm 4 m/s 756 mmHg 51%
    21:00 +28°C° 0 mm 3 m/s 757 mmHg 60%
    22:00 +27°C° 0 mm 3 m/s 757 mmHg 65%
    23:00 +26°C° 0 mm 3 m/s 756 mmHg 71%

    27 Fevereiro, Terça-feira

    Tempo Temperatura Precipitação Vento Pressão Humidade
    00:00 +26°C° 0 mm 3 m/s 756 mmHg 76%
    01:00 +26°C° 0 mm 3 m/s 756 mmHg 76%
    02:00 +25°C° 0 mm 3 m/s 756 mmHg 75%
    03:00 +25°C° 0 mm 3 m/s 755 mmHg 74%
    04:00 +25°C° 0 mm 3 m/s 756 mmHg 73%
    05:00 +24°C° 0 mm 3 m/s 756 mmHg 72%
    06:00 +24°C° 0 mm 2 m/s 756 mmHg 71%
    07:00 +27°C° 0 mm 2 m/s 757 mmHg 57%
    08:00 +30°C° 0 mm 3 m/s 757 mmHg 43%
    09:00 +34°C° 0 mm 3 m/s 758 mmHg 29%
    10:00 +36°C° 0 mm 3 m/s 757 mmHg 25%
    11:00 +38°C° 0 mm 3 m/s 757 mmHg 20%
    12:00 +40°C° 0 mm 3 m/s 756 mmHg 15%
    13:00 +40°C° 0 mm 3 m/s 755 mmHg 15%
    14:00 +41°C° 0 mm 4 m/s 754 mmHg 15%
    15:00 +41°C° 0 mm 4 m/s 754 mmHg 15%
    16:00 +38°C° 0 mm 4 m/s 754 mmHg 23%
    17:00 +35°C° 0 mm 4 m/s 754 mmHg 30%
    18:00 +32°C° 0 mm 5 m/s 754 mmHg 38%
    19:00 +30°C° 0 mm 4 m/s 755 mmHg 45%
    20:00 +29°C° 0 mm 4 m/s 755 mmHg 52%
    21:00 +27°C° 0 mm 4 m/s 756 mmHg 59%
    22:00 +27°C° 0 mm 4 m/s 755 mmHg 60%
    23:00 +27°C° 0 mm 3 m/s 755 mmHg 60%

    28 Fevereiro, Quarta-feira

    Tempo Temperatura Precipitação Vento Pressão Humidade
    00:00 +26°C° 0 mm 3 m/s 755 mmHg 61%
    01:00 +26°C° 0 mm 3 m/s 755 mmHg 61%
    02:00 +26°C° 0 mm 3 m/s 754 mmHg 61%
    03:00 +25°C° 0 mm 3 m/s 754 mmHg 61%
    04:00 +25°C° 0 mm 3 m/s 754 mmHg 61%
    05:00 +25°C° 0 mm 3 m/s 755 mmHg 62%
    06:00 +24°C° 0 mm 2 m/s 755 mmHg 63%
    07:00 +27°C° 0 mm 2 m/s 756 mmHg 53%
    08:00 +30°C° 0 mm 2 m/s 756 mmHg 43%
    09:00 +34°C° 0 mm 3 m/s 757 mmHg 34%
    10:00 +36°C° 0 mm 3 m/s 756 mmHg 29%
    11:00 +38°C° 0 mm 3 m/s 756 mmHg 24%
    12:00 +39°C° 0 mm 2 m/s 755 mmHg 20%
    13:00 +39°C° 0 mm 3 m/s 755 mmHg 20%
    14:00 +39°C° 0 mm 3 m/s 754 mmHg 21%
    15:00 +40°C° 0 mm 3 m/s 753 mmHg 21%
    16:00 +37°C° 0 mm 3 m/s 753 mmHg 32%
    17:00 +34°C° 0 mm 4 m/s 754 mmHg 42%
    18:00 +30°C° 0 mm 4 m/s 754 mmHg 53%
    19:00 +29°C° 0 mm 4 m/s 754 mmHg 59%
    20:00 +28°C° 0 mm 3 m/s 755 mmHg 65%
    21:00 +27°C° 0 mm 3 m/s 755 mmHg 71%
    22:00 +27°C° 0 mm 3 m/s 755 mmHg 72%
    23:00 +26°C° 0 mm 3 m/s 755 mmHg 74%
    Mostrar mais